Temp
-7 -7 -7 -7 -7 -8 -7 -7 -7 -7 -7 -7 -7 -7 -7 -7 -7 -7 -7 -7 -7 -7 -7 -6 -6 -6 -6 -6 -6 -7 -6 -7 -7 -7 -7 -6 -6 -6 -7 -7 -6 -6 -6
-7 -7 -7 -7 -7 -8 -8 -7 -7 -6 -7 -7 -7 -6 -6 -6 -6 -6 -7 -7 -7 -7 -7 -7 -6 -6 -7 -6 -6 -6 -6 -6 -7 -7 -6 -6 -6 -6 -6 -6 -6 -6 -6
-6 -6 -6 -6 -7 -7 -7 -7 -7 -7 -7 -7 -6 -6 -6 -6 -6 -6 -6 -6 -6 -7 -7 -7 -7 -6 -7 -6 -6 -6 -7 -7 -7 -7 -7 -7 -6 -6 -6 -6 -6 -6 -6
-6 -5 -5 -6 -7 -7 -7 -7 -7 -7 -7 -6 -6 -6 -6 -6 -6 -6 -6 -6 -6 -6 -6 -7 -7 -7 -7 -7 -7 -7 -7 -7 -7 -7 -7 -7 -7 -6 -6 -6 -6 -6 -6
-5 -6 -6 -6 -6 -6 -6 -6 -6 -7 -6 -6 -6 -6 -6 -6 -6 -6 -6 -6 -6 -6 -7 -7 -7 -7 -7 -7 -7 -7 -7 -7 -7 -7 -7 -7 -7 -6 -6 -6 -7 -7 -7
-5 -5 -6 -6 -7 -7 -7 -6 -6 -6 -6 -6 -6 -6 -6 -6 -7 -7 -7 -6 -6 -6 -6 -7 -7 -7 -7 -7 -8 -7 -8 -7 -7 -7 -7 -7 -7 -7 -7 -6 -7 -7 -7
-5 -6 -6 -6 -7 -7 -6 -6 -6 -6 -6 -6 -6 -6 -6 -6 -6 -6 -6 -6 -7 -7 -7 -7 -7 -7 -7 -7 -7 -7 -8 -7 -7 -7 -7 -7 -7 -7 -7 -7 -7 -6 -7
-6 -6 -6 -6 -7 -6 -6 -6 -6 -6 -6 -6 -6 -6 -6 -6 -6 -6 -6 -6 -7 -7 -7 -7 -7 -7 -7 -7 -7 -7 -7 -7 -7 -8 -7 -7 -7 -7 -7 -7 -7 -7 -7
-6 -6 -6 -6 -6 -6 -6 -6 -6 -6 -6 -6 -6 -6 -6 -6 -7 -6 -6 -6 -7 -7 -6 -7 -7 -7 -7 -7 -6 -7 -7 -7 -7 -7 -8 -8 -7 -7 -7 -7 -7 -7 -7
-6 -6 -6 -6 -5 -6 -6 -6 -6 -6 -6 -6 -6 -6 -6 -7 -7 -6 -7 -6 -7 -7 -7 -7 -7 -7 -7 -7 -6 -7 -7 -7 -7 -8 -8 -8 -8 -8 -8 -8 -7 -7 -7
-7 -6 -6 -5 -6 -6 -6 -7 -6 -6 -6 -6 -6 -6 -6 -7 -7 -7 -6 -6 -7 -7 -7 -7 -7 -7 -7 -8 -8 -7 -7 -8 -8 -8 -8 -8 -8 -8 -8 -8 -8 -8 -8
-8 -6 -6 -6 -6 -6 -6 -6 -6 -6 -6 -6 -6 -6 -6 -6 -7 -7 -7 -7 -7 -7 -7 -8 -7 -7 -7 -7 -7 -7 -7 -8 -8 -8 -8 -8 -8 -8 -8 -8 -8 -8 -8
-9 -7 -6 -6 -6 -6 -6 -6 -6 -6 -6 -6 -6 -6 -7 -7 -7 -7 -7 -7 -7 -7 -8 -8 -8 -8 -7 -7 -7 -7 -8 -8 -8 -8 -8 -8 -8 -8 -8 -8 -8 -8 -8
-7 -7 -6 -6 -6 -6 -6 -6 -6 -6 -6 -6 -6 -6 -7 -7 -7 -7 -7 -7 -7 -8 -7 -8 -7 -8 -8 -8 -8 -8 -8 -8 -8 -8 -8 -8 -8 -8 -8 -8 -8 -8 -8
-8 -7 -7 -6 -6 -6 -6 -6 -6 -6 -6 -6 -6 -6 -7 -7 -7 -7 -7 -8 -8 -8 -8 -7 -7 -7 -8 -8 -8 -7 -7 -8 -8 -8 -8 -8 -8 -8 -8 -7 -7 -7 -7
-8 -7 -7 -6 -6 -6 -6 -6 -6 -6 -6 -6 -6 -6 -6 -7 -7 -7 -7 -7 -7 -8 -7 -7 -7 -7 -7 -7 -8 -8 -8 -8 -8 -8 -7 -7 -7 -7 -7 -7 -7 -7 -7
-8 -7 -7 -6 -6 -6 -6 -6 -6 -6 -6 -6 -6 -6 -6 -7 -7 -7 -7 -7 -7 -7 -7 -7 -7 -7 -7 -8 -7 -8 -8 -7 -7 -7 -7 -7 -7 -7 -7 -7 -7 -7 -7
-8 -7 -7 -7 -7 -6 -6 -6 -6 -6 -6 -6 -7 -7 -7 -7 -7 -7 -7 -7 -7 -7 -7 -7 -7 -7 -7 -7 -7 -7 -7 -7 -7 -7 -7 -7 -7 -7 -7 -7 -7 -7 -7
-8 -8 -7 -7 -7 -7 -7 -7 -7 -7 -7 -7 -7 -7 -7 -7 -7 -7 -7 -7 -7 -7 -7 -7 -7 -7 -7 -7 -7 -7 -7 -7 -7 -7 -7 -7 -7 -7 -7 -7 -7 -7 -7
-8 -7 -7 -8 -7 -7 -7 -7 -7 -7 -7 -7 -7 -7 -7 -7 -7 -7 -7 -7 -7 -7 -7 -7 -7 -7 -7 -7 -7 -7 -7 -7 -7 -7 -7 -8 -8 -8 -8 -8 -8 -8 -8
-8 -8 -8 -8 -8 -7 -7 -7 -7 -7 -7 -7 -7 -7 -7 -7 -7 -8 -8 -8 -8 -8 -8 -8 -8 -8 -8 -8 -8 -8 -8 -8 -8 -8 -8 -8 -8 -9 -9 -9 -9 -9 -8
-8 -8 -8 -8 -8 -8 -7 -7 -7 -7 -7 -7 -7 -7 -8 -8 -8 -8 -8 -8 -8 -8 -8 -8 -8 -8 -8 -8 -8 -8 -8 -8 -9 -9 -9 -9 -9 -9 -9 -9 -9 -9 -9
-8 -8 -9 -8 -8 -8 -8 -7 -7 -7 -8 -8 -8 -8 -8 -8 -8 -8 -8 -8 -8 -8 -8 -8 -8 -8 -8 -8 -9 -9 -9 -9 -9 -9 -9 -9 -10 -10 -10 -10 -10 -10 -11
-9 -9 -9 -9 -8 -8 -8 -8 -8 -8 -9 -9 -9 -9 -9 -9 -9 -9 -9 -9 -9 -9 -8 -9 -9 -9 -9 -9 -9 -9 -9 -9 -10 -10 -10 -10 -10 -10 -11 -11 -11 -11 -12
-9 -9 -10 -9 -9 -9 -9 -9 -9 -9 -9 -9 -9 -9 -9 -9 -9 -9 -9 -9 -9 -9 -9 -9 -9 -9 -9 -10 -10 -10 -10 -10 -11 -11 -11 -11 -11 -11 -12 -12 -13 -13 -13
-9 -9 -10 -10 -9 -9 -10 -10 -9 -9 -9 -9 -9 -9 -9 -9 -9 -9 -9 -9 -9 -9 -9 -10 -10 -10 -10 -10 -11 -11 -11 -11 -11 -11 -11 -12 -12 -12 -12 -13 -14 -13 -14
Height
5895 5893 5891 5891 5895 5899 5899 5898 5903 5901 5904 5905 5909 5910 5912 5913 5913 5915 5915 5917 5919 5919 5920 5920 5921 5921 5920 5920 5921 5922 5923 5924 5924 5924 5923 5923 5923 5923 5922 5922 5922 5922 5921
5895 5891 5889 5891 5895 5892 5895 5897 5898 5900 5901 5901 5907 5909 5910 5911 5911 5912 5914 5914 5915 5915 5916 5917 5918 5918 5918 5918 5918 5918 5919 5920 5920 5920 5920 5920 5919 5919 5919 5919 5919 5919 5919
5887 5888 5889 5894 5891 5893 5892 5894 5896 5898 5898 5903 5905 5905 5907 5907 5908 5908 5910 5911 5911 5912 5912 5913 5914 5914 5914 5914 5914 5914 5915 5915 5916 5916 5917 5916 5915 5915 5915 5915 5915 5915 5915
5887 5888 5890 5890 5887 5892 5891 5891 5894 5896 5900 5901 5901 5902 5903 5904 5904 5905 5905 5906 5907 5907 5908 5908 5908 5909 5909 5909 5909 5910 5910 5911 5910 5911 5912 5911 5911 5911 5911 5910 5909 5909 5911
5884 5884 5886 5889 5891 5890 5886 5892 5892 5895 5896 5898 5899 5899 5899 5900 5900 5900 5901 5901 5903 5903 5903 5903 5903 5900 5901 5902 5903 5903 5903 5903 5905 5906 5906 5907 5907 5905 5904 5904 5904 5905 5906
5881 5880 5882 5884 5886 5887 5888 5889 5891 5893 5894 5895 5896 5896 5896 5896 5896 5896 5896 5896 5897 5898 5898 5896 5897 5890 5895 5898 5897 5897 5899 5900 5900 5900 5901 5901 5901 5900 5899 5899 5900 5901 5901
5878 5879 5880 5881 5883 5885 5886 5887 5889 5891 5892 5893 5893 5893 5893 5893 5893 5892 5892 5893 5893 5892 5891 5892 5891 5893 5894 5894 5892 5893 5893 5894 5898 5897 5895 5896 5896 5895 5893 5893 5894 5896 5897
5876 5878 5880 5881 5882 5883 5884 5886 5887 5889 5889 5889 5889 5890 5889 5891 5889 5888 5888 5886 5888 5889 5887 5887 5891 5890 5890 5889 5887 5887 5889 5890 5891 5891 5891 5891 5891 5891 5889 5888 5890 5891 5889
5874 5876 5877 5879 5881 5882 5883 5884 5885 5886 5886 5886 5886 5886 5885 5885 5885 5884 5884 5883 5884 5883 5885 5889 5887 5887 5884 5875 5866 5879 5882 5883 5885 5886 5886 5887 5887 5886 5884 5885 5886 5886 5886
5873 5874 5875 5877 5878 5879 5880 5881 5882 5883 5883 5882 5882 5882 5881 5881 5881 5881 5862 5875 5879 5879 5880 5875 5883 5883 5877 5874 5853 5874 5875 5878 5879 5880 5881 5882 5882 5882 5882 5882 5882 5883 5882
5868 5871 5874 5875 5876 5877 5878 5879 5880 5881 5880 5880 5879 5879 5878 5877 5876 5876 5876 5876 5875 5875 5877 5878 5879 5880 5876 5874 5876 5876 5874 5875 5876 5876 5877 5879 5879 5879 5879 5879 5878 5878 5877
5866 5870 5872 5873 5875 5876 5876 5877 5877 5878 5878 5876 5876 5876 5875 5874 5874 5873 5872 5871 5872 5872 5873 5872 5874 5874 5874 5873 5871 5872 5873 5873 5873 5874 5874 5875 5875 5875 5875 5874 5874 5873 5872
5867 5870 5870 5872 5874 5875 5875 5875 5876 5876 5875 5875 5875 5874 5874 5872 5871 5871 5869 5866 5867 5863 5868 5868 5869 5870 5871 5870 5869 5869 5869 5869 5868 5869 5870 5869 5869 5869 5868 5868 5868 5867 5866
5868 5867 5869 5871 5872 5873 5873 5874 5874 5875 5874 5874 5875 5874 5873 5872 5871 5869 5864 5865 5866 5865 5865 5866 5865 5866 5866 5866 5866 5866 5865 5865 5865 5865 5865 5866 5864 5864 5863 5862 5862 5861 5860
5867 5868 5868 5869 5870 5872 5871 5872 5873 5874 5873 5873 5874 5874 5873 5873 5871 5870 5869 5868 5867 5866 5865 5865 5864 5864 5863 5864 5863 5860 5858 5861 5861 5861 5861 5860 5859 5859 5858 5857 5856 5854 5853
5866 5866 5866 5868 5868 5869 5870 5871 5872 5872 5872 5873 5873 5873 5873 5872 5871 5870 5869 5869 5868 5867 5865 5864 5863 5862 5861 5861 5859 5857 5855 5856 5857 5858 5857 5856 5855 5854 5853 5852 5850 5848 5846
5866 5866 5866 5866 5866 5867 5868 5868 5869 5870 5872 5872 5872 5872 5872 5871 5870 5870 5868 5868 5867 5866 5865 5864 5863 5861 5859 5858 5856 5855 5854 5854 5854 5854 5852 5851 5850 5849 5847 5846 5844 5843 5841
5863 5864 5864 5865 5865 5865 5866 5866 5866 5868 5869 5870 5870 5870 5870 5869 5868 5868 5867 5866 5865 5864 5863 5862 5861 5860 5858 5856 5854 5852 5851 5850 5850 5849 5848 5847 5845 5843 5841 5839 5837 5835 5833
5863 5863 5862 5862 5862 5863 5864 5864 5864 5866 5867 5868 5868 5868 5867 5866 5865 5864 5863 5863 5862 5862 5861 5860 5859 5857 5856 5854 5852 5851 5849 5848 5846 5845 5843 5841 5839 5838 5835 5833 5830 5828 5825
5863 5862 5861 5860 5860 5861 5862 5862 5862 5863 5864 5865 5865 5865 5863 5862 5861 5861 5859 5859 5858 5858 5857 5855 5855 5854 5852 5851 5849 5848 5846 5844 5842 5840 5838 5836 5833 5831 5828 5825 5822 5819 5816
5861 5860 5859 5859 5859 5859 5860 5860 5861 5861 5861 5861 5861 5861 5860 5859 5858 5857 5856 5855 5855 5854 5853 5851 5849 5848 5847 5846 5844 5842 5840 5839 5836 5834 5831 5829 5826 5823 5820 5817 5814 5810 5807
5857 5857 5857 5857 5857 5858 5858 5858 5859 5859 5858 5858 5858 5857 5857 5856 5855 5854 5853 5852 5851 5849 5848 5847 5846 5844 5842 5840 5838 5836 5834 5831 5828 5826 5822 5819 5817 5814 5809 5805 5801 5798 5794
5854 5854 5854 5854 5854 5854 5854 5854 5856 5856 5856 5855 5855 5854 5853 5852 5852 5851 5849 5848 5846 5845 5843 5842 5840 5838 5836 5833 5830 5828 5826 5823 5820 5817 5813 5811 5807 5803 5798 5794 5791 5787 5783
5850 5849 5850 5851 5851 5851 5851 5851 5851 5852 5852 5853 5851 5851 5850 5849 5848 5847 5846 5845 5843 5840 5838 5836 5834 5831 5829 5827 5824 5821 5817 5814 5810 5807 5803 5799 5796 5792 5787 5783 5779 5775 5772
5845 5845 5846 5847 5848 5848 5848 5848 5849 5849 5849 5849 5848 5846 5844 5844 5843 5842 5840 5839 5837 5835 5832 5830 5827 5824 5821 5818 5815 5812 5807 5804 5801 5797 5792 5788 5785 5782 5777 5773 5769 5764 5760
5840 5841 5842 5843 5843 5844 5844 5844 5845 5844 5844 5844 5843 5841 5839 5837 5836 5835 5834 5832 5830 5827 5823 5822 5819 5815 5812 5808 5804 5801 5798 5794 5790 5786 5781 5778 5774 5770 5768 5766 5759 5756 5751
Wind_Speed
16 15 10 4 6 16 17 14 5 6 10 8 10 11 14 15 16 15 16 18 18 18 20 20 19 17 17 17 18 17 17 18 17 15 15 14 13 13 13 14 14 13 12
15 16 9 10 12 18 16 14 10 16 8 6 10 11 13 16 17 17 17 18 18 18 20 22 21 21 20 19 19 22 24 24 21 22 21 19 19 18 18 18 19 18 17
14 12 9 11 11 15 15 11 9 8 7 10 14 14 14 14 14 15 14 16 18 18 20 21 23 23 23 24 23 24 25 29 25 25 24 27 25 21 20 23 24 24 22
13 10 11 7 6 13 7 7 7 6 6 9 10 11 14 15 16 16 17 17 17 17 17 19 20 22 24 25 24 23 24 25 27 26 26 23 26 24 23 24 25 28 24
11 8 7 6 7 5 2 8 6 7 9 11 13 14 14 14 16 17 18 20 19 19 21 22 22 24 26 27 27 28 27 26 25 23 27 27 26 25 26 28 21 26 25
11 9 8 7 5 5 6 6 8 9 11 11 13 13 14 16 19 18 20 21 20 20 20 22 22 20 26 27 25 22 20 23 20 18 20 25 26 24 26 25 23 24 25
13 11 10 9 6 6 7 8 9 11 12 11 12 11 12 14 17 19 21 21 21 22 24 23 24 24 26 23 20 16 20 20 21 24 21 18 21 21 24 23 25 27 28
14 11 8 8 4 6 7 7 7 8 9 11 11 12 12 13 15 17 18 18 20 20 23 24 21 24 22 24 22 21 19 18 19 20 19 17 18 18 13 12 19 17 28
14 13 10 7 4 6 5 6 7 8 9 10 11 14 14 14 14 16 17 18 19 18 21 20 18 20 23 24 23 21 18 17 16 18 17 17 17 13 13 12 10 12 14
18 13 9 6 5 6 5 5 6 6 8 11 13 13 14 14 15 16 19 12 19 17 21 18 18 15 22 20 9 18 18 16 19 13 12 10 11 12 12 12 13 15 18
19 12 9 6 5 6 6 6 5 6 8 9 11 12 12 13 13 13 16 19 19 21 18 18 16 16 17 17 18 19 15 15 15 14 14 15 15 16 18 18 17 19 21
12 8 8 7 6 6 6 5 4 7 7 8 9 9 9 9 10 9 12 14 13 24 17 14 14 16 17 20 20 19 15 17 17 17 19 19 19 19 20 19 19 20 21
4 10 9 7 6 6 5 4 4 5 4 5 5 6 7 7 7 8 10 13 12 11 10 12 13 13 18 19 16 16 17 20 18 15 18 18 18 19 20 21 21 22 23
1 4 6 7 6 5 4 4 4 5 3 4 3 3 5 8 10 11 13 5 8 8 11 8 14 14 21 14 15 18 20 17 16 14 15 16 18 20 20 20 21 23 23
8 11 9 6 6 5 3 3 3 3 1 4 4 6 7 8 10 13 14 15 9 10 8 8 8 9 10 9 15 18 18 16 15 15 16 15 15 16 17 18 19 19 20
2 4 6 6 5 3 2 2 3 4 7 8 5 5 5 7 9 11 12 11 11 10 7 9 9 9 10 11 12 12 9 7 9 11 10 12 15 17 18 20 21 22 22
5 5 4 4 4 2 2 3 5 8 8 5 3 2 4 7 9 12 14 13 11 9 9 10 12 11 10 11 11 10 7 6 9 12 13 15 17 19 20 22 23 24 24
5 5 6 5 4 3 3 4 5 11 10 8 5 6 7 10 10 12 14 14 12 10 10 10 10 10 11 13 15 14 14 14 15 15 16 18 20 22 23 25 27 27 28
9 9 6 4 4 4 5 4 5 6 10 11 10 11 12 13 14 14 14 12 10 10 12 14 15 16 16 17 16 16 17 18 19 20 22 23 25 27 29 31 32 33 34
11 13 10 6 5 5 6 4 5 7 9 11 13 15 15 16 16 15 13 11 12 13 14 15 15 16 17 18 18 19 21 22 24 25 27 28 30 33 35 36 37 38 38
12 10 10 9 8 7 7 6 6 7 9 11 13 14 15 15 14 13 13 15 15 16 16 16 16 17 19 21 23 24 25 26 28 29 31 33 35 36 37 37 38 39 39
9 10 10 9 10 9 9 9 10 11 11 12 13 12 12 14 14 15 16 17 17 18 18 19 20 21 23 24 26 28 30 32 34 36 36 37 37 37 40 42 42 42 42
14 15 13 11 9 8 10 11 12 13 13 12 12 12 13 15 17 18 19 19 19 20 21 23 24 26 28 30 31 32 34 36 37 38 40 40 42 41 42 42 42 41 40
16 14 15 12 10 8 8 10 11 11 11 12 13 15 16 18 19 19 20 23 24 27 29 30 30 31 32 34 35 37 38 39 39 40 41 43 44 43 41 41 42 42 40
15 12 13 12 12 11 11 12 14 14 15 18 19 20 20 21 22 24 26 28 30 32 33 32 32 33 34 36 36 37 39 41 40 40 43 43 43 41 40 39 38 38 38
15 11 11 13 14 15 15 16 16 17 17 19 21 24 24 25 25 26 27 28 30 31 33 33 35 36 37 38 39 39 39 41 41 41 43 41 42 40 39 37 38 39 39
Wind_Direction
229 231 247 262 222 224 214 223 200 265 170 229 225 226 224 225 229 225 237 247 250 251 256 261 259 257 260 267 273 275 276 273 268 271 279 277 277 275 272 269 263 256 251
224 231 231 230 212 210 207 216 223 227 246 234 245 239 232 236 238 242 246 250 250 254 255 260 261 265 268 267 272 276 277 275 269 262 262 270 271 275 266 267 262 252 247
217 233 219 217 214 208 153 196 219 225 242 247 248 244 243 245 247 253 252 255 261 261 260 258 262 267 268 269 267 266 273 280 267 263 268 273 268 267 269 263 262 249 245
224 215 206 188 232 233 200 197 202 221 245 262 261 256 252 256 258 256 257 252 253 262 263 260 263 265 269 269 270 269 271 269 281 260 269 278 269 269 269 276 271 243 242
212 229 219 197 199 245 121 216 212 239 264 261 255 255 252 253 253 256 256 256 252 252 263 263 263 265 268 271 273 266 264 257 274 267 270 271 275 275 271 270 265 240 239
204 217 220 218 227 246 249 246 254 253 261 260 256 257 259 259 262 264 266 265 266 262 258 259 260 260 274 279 280 272 258 262 268 270 274 276 273 266 269 263 252 242 242
208 205 215 220 216 238 246 250 253 256 257 249 257 261 261 268 267 266 267 267 269 267 266 261 261 267 270 282 286 262 255 265 273 274 280 279 269 279 282 248 249 243 247
201 199 196 206 193 249 250 254 250 246 252 262 269 272 272 270 268 266 267 267 274 270 270 278 273 269 280 272 270 261 262 263 268 263 274 285 287 273 269 262 252 267 256
204 194 192 189 222 244 238 230 233 245 260 273 278 280 282 278 271 270 267 271 271 277 276 268 280 280 271 267 220 253 251 256 266 264 263 280 287 289 288 298 250 277 270
196 196 195 205 246 236 228 240 246 261 280 286 289 288 285 281 275 267 262 267 266 248 270 285 274 275 277 296 212 288 274 259 269 277 272 271 275 285 300 294 266 274 272
186 193 200 221 241 223 228 229 242 267 274 285 295 297 294 288 278 265 258 261 254 262 264 275 278 269 279 284 275 288 288 257 260 275 280 267 274 288 294 293 283 275 279
172 194 209 220 228 213 213 221 249 276 288 309 311 311 304 296 282 277 273 265 246 260 264 281 283 283 277 279 275 276 278 278 280 276 271 274 283 289 293 290 288 286 288
144 219 202 212 210 201 216 246 264 292 306 317 328 324 324 325 312 297 286 289 286 299 284 279 309 280 278 289 273 271 273 284 272 274 278 284 288 289 292 292 294 294 290
228 213 207 209 201 203 209 238 285 288 301 281 315 5 29 24 10 13 23 313 335 313 313 305 301 280 306 280 272 276 283 290 273 278 280 287 294 296 296 299 298 298 299
200 212 207 200 208 206 207 243 269 272 274 130 103 75 50 35 20 25 24 28 35 41 30 347 356 328 350 309 298 300 265 268 267 287 285 300 305 304 303 303 303 305 305
198 184 193 201 193 210 256 260 224 171 142 132 106 61 35 30 10 10 7 6 9 20 353 347 342 329 328 329 331 349 335 316 319 311 303 305 306 306 306 304 303 302 301
201 197 194 207 197 190 247 246 199 181 169 168 138 60 356 352 354 348 345 344 338 330 323 316 315 310 313 315 323 326 325 308 298 294 303 301 302 302 303 304 303 300 299
242 218 209 214 227 239 246 252 224 215 222 234 251 284 303 319 324 326 328 327 327 334 330 327 325 319 319 318 318 316 313 311 310 308 305 305 306 307 306 304 302 303 304
264 242 220 231 245 253 253 246 237 237 238 246 259 279 292 302 306 310 312 313 312 315 315 315 313 310 310 309 306 305 307 308 308 308 308 308 306 305 305 303 302 302 302
263 246 239 237 254 259 258 254 252 249 252 262 273 282 289 295 298 299 299 295 294 300 304 307 307 308 310 309 308 305 303 302 300 301 302 304 305 304 303 303 302 301 301
264 262 256 257 256 262 266 264 262 261 265 272 278 284 288 290 291 292 291 294 300 305 305 304 300 301 300 300 300 300 299 297 297 298 298 300 302 302 300 300 298 298 297
274 274 270 263 260 263 265 273 281 282 281 281 280 283 291 294 291 289 292 295 297 300 300 299 300 301 303 303 302 300 300 300 300 300 302 303 304 304 303 303 301 300 299
273 274 278 274 267 257 261 266 274 278 279 280 284 289 291 294 297 297 297 296 297 298 297 297 297 298 298 299 300 300 299 300 301 303 302 302 303 303 301 301 300 300 300
273 261 262 262 262 259 263 266 267 271 277 283 287 290 294 295 294 295 297 300 301 300 299 299 299 299 301 301 301 301 301 301 301 302 300 301 303 303 302 301 300 300 300
267 248 246 244 253 265 275 280 283 284 287 288 291 292 294 296 296 295 295 295 298 299 299 300 300 300 302 302 303 303 303 303 303 304 302 302 301 301 301 300 300 301 302
243 239 243 247 260 271 280 285 287 287 289 292 293 294 294 294 296 299 302 303 301 300 301 301 302 305 307 306 304 304 304 303 304 304 303 301 301 300 297 298 301 301 301